Starlink 3828

operational
NORAD ID: 52469 Int'l Des: 2022-049 Owner: SPXS Country: US Constellation: starlink
LEOCIRCULAR

Über Starlink 3828

Beschreibung wird geladen...

Live-Position

3D-Globus wird geladen...

Nächste Überflüge

Höhenverlauf

Altitude vs Time

uPlot chart will show altitude changes over time

Zweizeiliger Elementsatz

1 52469U 22049U 25258.32018635 -.00000786 00000-0 -31315-4 0 9993
2 52469 53.2163 126.3922 0001302 87.4459 272.6682 15.08832748185773
Epoch: 15. Sept. 2025 • Age: 22 hours

Aktueller Status

Höhe 539.9 km
Geschwindigkeit 7.60 km/s
Subsatellitenpunkt 20.31°N, 51.92°E
Startdatum 6. Mai 2022
Alter 3.3 years
Typ internet

Technische Details

Klassifizierung Payload
Masse 297.00 kg
Trockenmasse 220.00 kg
Gesamtmasse 297.00 kg
Länge 0.20 m
Durchmesser 2.80 m
Spannweite 9.00 m
Form Box + pan
Hersteller SPXS
Bus-Typ Starlink
Phasenstatus In Orbit
Besitzer/Staat SPXS/US

Große Konstellationen

Loading constellations...